Other Public Products
Issued by NWS Charleston, SC

Current Version | Previous Version | Graphics & Text | Print | Product List | Glossary On
Versions: 1 2 3 4 5 6 7 8 9 10 11 12 13 14 15 16 17 18 19 20 21 22 23 24 25 26 27 28 29 30 31 32 33 34 35 36 37 38 39 40 41 42 43 44 45 46 47 48 49 50
036
FPUS82 KCHS 241127
OPUCHS

TEST...KCHS/KSAV Gateway Observations...TEST
National Weather Service Charleston SC
700 AM EDT SAT JUN 24 2017

NOTE: "fair" indicates few or no clouds below 12,000 feet with no
significant weather and/or obstructions to visibility.

SCZ050-WAZ558-NCZ071-TXZ119-213-PAZ071-DCZ001-FLZ074-172-MI076-
NYZ176-178-MAZ016-IL014-TNZ027-NJZ106-GAZ044-MD014-241200-

...Gateway Observations for Charleston International...

CITY           SKY/WX    TMP DP  RH WIND       PRES   REMARKS
Chas Airport   PTCLDY    80  74  81 SW12      29.98S
Seattle        CLEAR     64  47  53 N10       30.15S
Charlotte      CLOUDY    74  70  87 W5        29.95R
Dallas DFW     CLOUDY    74  70  87 E6        29.99R
Dallas Love    CLOUDY    74  71  91 E3        30.02R
Philladelphia  LGT RAIN  72  69  90 W7G20     29.62S
Wash National  MOSUNNY   74  69  85 W8        29.72R
Baltimore      CLOUDY    72  70  93 W7        29.69R
Miami          MOCLDY    83  74  74 E8        30.03R
Detroit        PTCLDY    64  55  72 W12       29.81R
Newark         HVY RAIN  70  70 100 W3        29.58S VSB 1
Laguardia      HVY RAIN  72  72 100 NE3       29.57F FOG
J F K          HVY RAIN  71  71 100 CALM      29.58F VSB 1
Boston Logan   CLOUDY    75  71  87 SW13      29.53S
Ft. Lauderdale PTCLDY    81  74  79 SE9       30.02R
Chicago O`Hare PTCLDY    62  55  77 W8        29.90S
Chicago Midway PTCLDY    63  56  78 W7        29.90S
Houston Bush   TSTM      78  74  87 W12       29.98R
Houston Hobby  LGT RAIN  80  77  90 SE3       29.96R
Nashville      CLOUDY    71  66  84 NW5       29.98R
Atlanta        CLOUDY    73  71  93 SW6       29.99R

$$

GAZ044-118-TXZ119-213-NCZ071-DCZ001-MDZ014-506-PAZ021-071-NJZ106-
NYZ176-178-MAZ106-OHZ011-021-055-MIZ076-KYZ091-ILZ014-INZ047-
MNZ060-ONZ431-241200-

...Gateway Observations for Savannah International...

CITY           SKY/WX    TMP DP  RH WIND       PRES   REMARKS
Savannah Arpt  PTCLDY    77  71  82 SW8       30.01S
Atlanta        CLOUDY    73  71  93 SW6       29.99R
Charlotte      CLOUDY    74  70  87 W5        29.95R
Dallas DFW     CLOUDY    74  70  87 E6        29.99R
Houston Bush   TSTM      78  74  87 W12       29.98R
Wash National  MOSUNNY   74  69  85 W8        29.72R
Wash Dulles    MOSUNNY   71  66  84 W17       29.73R
Baltimore      CLOUDY    72  70  93 W7        29.69R
Philadelphia   LGT RAIN  72  69  90 W7G20     29.62S
Newark         HVY RAIN  70  70 100 W3        29.58S VSB 1
Laguardia      HVY RAIN  72  72 100 NE3       29.57F FOG
J F K          HVY RAIN  71  71 100 CALM      29.58F VSB 1
Boston         CLOUDY    75  71  87 SW13      29.53S
Pittsburg      MOSUNNY   65  65 100 W8        29.82R
Akron          MOSUNNY   63  57  81 W5        29.84R
Cleveland      PTCLDY    64  57  78 SW8       29.83R
Cincinnati     PTCLDY    63  62  97 W8        29.93R
Columbus       CLEAR     62  62 100 SW7       29.88R
Detroit        PTCLDY    64  55  72 W12       29.81R
Chicago O`Hare PTCLDY    62  55  77 W8        29.90S
Minneapolis    PTCLDY    55  45  68 NW12      29.98R
Indianapolis   CLOUDY    60  56  86 W6        29.94R
Toronto Canada MOSUNNY   64  54  68 NW9       29.70R

$$




USA.gov is the U.S. government's official web portal to all federal, state and local government web resources and services.